Time,TemperatureF,DewpointF,PressureIn,WindDirection,WindDirectionDegrees,WindSpeedMPH,WindSpeedGustMPH,Humidity,HourlyPrecipIn,Conditions,Clouds,dailyrainin,SoftwareType,DateUTC
2013-08-10 00:04:00,66.1,66.0,29.94,West,265,0.0,-999.0,100,-99.99,,,0.00,weatherlink.com 1.10,2013-08-10 04:04:00,
2013-08-10 00:19:00,66.1,66.0,29.94,West,265,0.0,-999.0,100,-99.99,,,0.00,weatherlink.com 1.10,2013-08-10 04:19:00,
2013-08-10 00:34:00,66.4,66.0,29.94,West,267,0.0,-999.0,100,-99.99,,,0.00,weatherlink.com 1.10,2013-08-10 04:34:00,
2013-08-10 00:49:00,66.4,66.0,29.95,West,261,0.0,-999.0,100,-99.99,,,0.00,weatherlink.com 1.10,2013-08-10 04:49:00,
2013-08-10 01:04:00,66.6,67.0,29.94,WNW,301,0.0,-999.0,100,-99.99,,,0.00,weatherlink.com 1.10,2013-08-10 05:04:00,
2013-08-10 01:19:00,66.6,67.0,29.94,WNW,301,0.0,-999.0,100,-99.99,,,0.00,weatherlink.com 1.10,2013-08-10 05:19:00,
2013-08-10 01:34:00,66.4,66.0,29.93,WNW,301,0.0,-999.0,100,-99.99,,,0.00,weatherlink.com 1.10,2013-08-10 05:34:00,
2013-08-10 01:49:00,66.3,66.0,29.93,WNW,301,0.0,-999.0,100,-99.99,,,0.00,weatherlink.com 1.10,2013-08-10 05:49:00,
2013-08-10 02:04:00,66.3,66.0,29.93,WNW,301,0.0,-999.0,100,-99.99,,,0.00,weatherlink.com 1.10,2013-08-10 06:04:00,
2013-08-10 02:19:00,66.4,66.0,29.93,WNW,301,0.0,-999.0,100,-99.99,,,0.00,weatherlink.com 1.10,2013-08-10 06:19:00,
2013-08-10 02:34:00,66.3,66.0,29.93,WNW,301,0.0,-999.0,100,-99.99,,,0.00,weatherlink.com 1.10,2013-08-10 06:34:00,
2013-08-10 02:49:00,66.4,66.0,29.93,WNW,301,0.0,-999.0,100,-99.99,,,0.00,weatherlink.com 1.10,2013-08-10 06:49:00,
2013-08-10 03:04:00,66.4,66.0,29.92,NW,306,0.0,-999.0,100,-99.99,,,0.00,weatherlink.com 1.10,2013-08-10 07:04:00,
2013-08-10 03:19:00,66.1,66.0,29.93,NW,306,0.0,-999.0,100,-99.99,,,0.00,weatherlink.com 1.10,2013-08-10 07:19:00,
2013-08-10 03:34:00,66.1,66.0,29.95,NW,306,0.0,-999.0,100,-99.99,,,0.00,weatherlink.com 1.10,2013-08-10 07:34:00,
2013-08-10 03:49:00,66.4,66.0,29.95,WNW,294,0.0,-999.0,100,-99.99,,,0.00,weatherlink.com 1.10,2013-08-10 07:49:00,
2013-08-10 04:04:00,66.9,67.0,29.94,WNW,292,0.0,-999.0,100,-99.99,,,0.00,weatherlink.com 1.10,2013-08-10 08:04:00,
2013-08-10 04:19:00,67.3,67.0,29.95,WNW,289,0.0,-999.0,100,-99.99,,,0.00,weatherlink.com 1.10,2013-08-10 08:19:00,
2013-08-10 04:34:00,67.3,67.0,29.95,WNW,289,0.0,-999.0,100,-99.99,,,0.00,weatherlink.com 1.10,2013-08-10 08:34:00,
2013-08-10 04:49:00,67.3,67.0,29.95,South,178,0.0,-999.0,99,-99.99,,,0.00,weatherlink.com 1.10,2013-08-10 08:49:00,
2013-08-10 05:04:00,67.1,67.0,29.95,South,178,0.0,-999.0,99,-99.99,,,0.00,weatherlink.com 1.10,2013-08-10 09:04:00,
2013-08-10 05:19:00,66.8,67.0,29.94,South,178,0.0,-999.0,99,-99.99,,,0.00,weatherlink.com 1.10,2013-08-10 09:19:00,
2013-08-10 05:34:00,66.6,66.0,29.95,South,184,0.0,-999.0,99,-99.99,,,0.00,weatherlink.com 1.10,2013-08-10 09:34:00,
2013-08-10 05:49:00,66.8,67.0,29.95,West,280,0.0,-999.0,100,-99.99,,,0.00,weatherlink.com 1.10,2013-08-10 09:49:00,
2013-08-10 06:04:00,66.8,67.0,29.96,East,83,0.0,-999.0,100,-99.99,,,0.00,weatherlink.com 1.10,2013-08-10 10:04:00,
2013-08-10 06:19:00,66.6,67.0,29.96,East,83,0.0,-999.0,100,-99.99,,,0.00,weatherlink.com 1.10,2013-08-10 10:19:00,
2013-08-10 06:34:00,66.4,66.0,29.97,East,88,0.0,-999.0,100,-99.99,,,0.00,weatherlink.com 1.10,2013-08-10 10:34:00,
2013-08-10 06:49:00,66.6,67.0,29.97,SSE,152,0.0,-999.0,100,-99.99,,,0.00,weatherlink.com 1.10,2013-08-10 10:49:00,
2013-08-10 07:04:00,66.9,67.0,29.97,NNW,347,0.0,-999.0,100,-99.99,,,0.00,weatherlink.com 1.10,2013-08-10 11:04:00,
2013-08-10 07:19:00,67.1,67.0,29.97,SW,217,0.0,-999.0,100,-99.99,,,0.00,weatherlink.com 1.10,2013-08-10 11:19:00,
2013-08-10 07:34:00,67.4,67.0,29.97,SSW,196,0.0,-999.0,100,-99.99,,,0.00,weatherlink.com 1.10,2013-08-10 11:34:00,
2013-08-10 07:50:00,67.8,68.0,29.97,SW,219,1.0,-999.0,99,-99.99,,,0.00,weatherlink.com 1.10,2013-08-10 11:50:00,
2013-08-10 08:05:00,67.9,68.0,29.98,SW,215,0.0,-999.0,99,-99.99,,,0.00,weatherlink.com 1.10,2013-08-10 12:05:00,
2013-08-10 08:20:00,68.3,68.0,29.98,NW,318,0.0,-999.0,99,-99.99,,,0.00,weatherlink.com 1.10,2013-08-10 12:20:00,
2013-08-10 08:35:00,69.1,68.0,29.98,SSE,160,0.0,-999.0,97,-99.99,,,0.00,weatherlink.com 1.10,2013-08-10 12:35:00,
2013-08-10 08:50:00,69.8,69.0,29.98,NW,304,0.0,-999.0,96,-99.99,,,0.00,weatherlink.com 1.10,2013-08-10 12:50:00,
2013-08-10 09:05:00,70.9,69.0,29.97,West,267,0.0,-999.0,94,-99.99,,,0.00,weatherlink.com 1.10,2013-08-10 13:05:00,
2013-08-10 09:20:00,72.0,70.0,29.97,SSW,192,0.0,-999.0,93,-99.99,,,0.00,weatherlink.com 1.10,2013-08-10 13:20:00,
2013-08-10 09:35:00,72.8,70.0,29.97,SW,215,0.0,-999.0,90,-99.99,,,0.00,weatherlink.com 1.10,2013-08-10 13:35:00,
2013-08-10 09:50:00,74.0,70.0,29.97,South,169,0.0,-999.0,86,-99.99,,,0.00,weatherlink.com 1.10,2013-08-10 13:50:00,
2013-08-10 10:05:00,75.1,70.0,29.97,SE,138,0.0,-999.0,84,-99.99,,,0.00,weatherlink.com 1.10,2013-08-10 14:05:00,
2013-08-10 10:20:00,75.8,71.0,29.97,South,174,0.0,-999.0,85,-99.99,,,0.00,weatherlink.com 1.10,2013-08-10 14:20:00,
2013-08-10 10:35:00,76.3,70.0,29.97,ESE,106,0.0,-999.0,81,-99.99,,,0.00,weatherlink.com 1.10,2013-08-10 14:35:00,
2013-08-10 10:50:00,77.0,71.0,29.98,East,89,0.0,-999.0,81,-99.99,,,0.00,weatherlink.com 1.10,2013-08-10 14:50:00,
2013-08-10 11:20:00,77.2,71.0,29.98,WNW,288,0.0,-999.0,81,-99.99,,,0.00,weatherlink.com 1.10,2013-08-10 15:20:00,
2013-08-10 11:35:00,77.9,71.0,29.99,WSW,257,0.0,-999.0,78,-99.99,,,0.00,weatherlink.com 1.10,2013-08-10 15:35:00,
2013-08-10 11:50:00,74.9,68.0,30.00,South,186,0.0,-999.0,79,-99.99,,,0.00,weatherlink.com 1.10,2013-08-10 15:50:00,
2013-08-10 12:05:00,72.7,69.0,30.01,WSW,239,0.0,-999.0,89,-99.99,,,0.00,weatherlink.com 1.10,2013-08-10 16:05:00,
2013-08-10 12:20:00,72.5,69.0,29.99,WNW,295,0.0,-999.0,89,-99.99,,,0.00,weatherlink.com 1.10,2013-08-10 16:20:00,
2013-08-10 12:35:00,71.1,68.0,29.99,SSW,198,0.0,-999.0,89,-99.99,,,0.00,weatherlink.com 1.10,2013-08-10 16:35:00,
2013-08-10 12:50:00,72.0,71.0,29.99,South,179,0.0,-999.0,96,-99.99,,,0.00,weatherlink.com 1.10,2013-08-10 16:50:00,
2013-08-10 13:05:00,74.7,72.0,29.97,SSE,150,1.0,-999.0,92,-99.99,,,0.00,weatherlink.com 1.10,2013-08-10 17:05:00,
2013-08-10 13:20:00,77.4,73.0,29.97,ESE,119,0.0,-999.0,85,-99.99,,,0.00,weatherlink.com 1.10,2013-08-10 17:20:00,
2013-08-10 13:35:00,78.3,72.0,29.95,NW,322,2.0,-999.0,82,-99.99,,,0.00,weatherlink.com 1.10,2013-08-10 17:35:00,
2013-08-10 13:50:00,79.0,70.0,29.95,SW,219,1.0,-999.0,75,-99.99,,,0.00,weatherlink.com 1.10,2013-08-10 17:50:00,
2013-08-10 14:05:00,80.7,72.0,29.93,SW,232,0.0,-999.0,74,-99.99,,,0.00,weatherlink.com 1.10,2013-08-10 18:05:00,
2013-08-10 14:20:00,81.2,71.0,29.93,ENE,72,0.0,-999.0,72,-99.99,,,0.00,weatherlink.com 1.10,2013-08-10 18:20:00,
2013-08-10 14:35:00,81.8,72.0,29.93,West,271,0.0,-999.0,73,-99.99,,,0.00,weatherlink.com 1.10,2013-08-10 18:35:00,
2013-08-10 14:50:00,81.2,72.0,29.93,WSW,237,0.0,-999.0,73,-99.99,,,0.00,weatherlink.com 1.10,2013-08-10 18:50:00,
2013-08-10 15:05:00,80.1,71.0,29.94,SSE,161,0.0,-999.0,73,-99.99,,,0.00,weatherlink.com 1.10,2013-08-10 19:05:00,
2013-08-10 15:20:00,79.2,70.0,29.95,SSE,161,0.0,-999.0,74,-99.99,,,0.01,weatherlink.com 1.10,2013-08-10 19:20:00,
2013-08-10 15:35:00,75.8,67.0,29.95,SSE,150,0.0,-999.0,74,-99.99,,,0.02,weatherlink.com 1.10,2013-08-10 19:35:00,
2013-08-10 15:50:00,72.8,67.0,29.97,ESE,120,0.0,-999.0,83,-99.99,,,0.02,weatherlink.com 1.10,2013-08-10 19:50:00,
2013-08-10 16:05:00,71.3,66.0,29.97,ESE,120,0.0,-999.0,83,-99.99,,,0.02,weatherlink.com 1.10,2013-08-10 20:05:00,
2013-08-10 16:20:00,70.8,69.0,29.98,ESE,120,0.0,-999.0,94,-99.99,,,0.02,weatherlink.com 1.10,2013-08-10 20:20:00,
2013-08-10 16:35:00,70.4,69.0,29.98,ESE,120,0.0,-999.0,94,-99.99,,,0.02,weatherlink.com 1.10,2013-08-10 20:35:00,
2013-08-10 16:50:00,69.9,69.0,29.97,ESE,120,0.0,-999.0,96,-99.99,,,0.03,weatherlink.com 1.10,2013-08-10 20:50:00,
2013-08-10 17:05:00,69.8,69.0,29.97,ESE,120,0.0,-999.0,96,-99.99,,,0.03,weatherlink.com 1.10,2013-08-10 21:05:00,
2013-08-10 17:20:00,70.1,70.0,29.98,North,354,0.0,-999.0,99,-99.99,,,0.03,weatherlink.com 1.10,2013-08-10 21:20:00,
2013-08-10 17:35:00,69.6,69.0,29.99,South,175,2.0,-999.0,97,-99.99,,,0.03,weatherlink.com 1.10,2013-08-10 21:35:00,
2013-08-10 17:50:00,67.6,66.0,30.00,SSE,162,0.0,-999.0,95,-99.99,,,0.03,weatherlink.com 1.10,2013-08-10 21:50:00,
2013-08-10 18:05:00,66.8,66.0,30.00,SSE,162,0.0,-999.0,97,-99.99,,,0.03,weatherlink.com 1.10,2013-08-10 22:05:00,
2013-08-10 18:20:00,66.0,65.0,30.01,SSE,162,0.0,-999.0,97,-99.99,,,0.03,weatherlink.com 1.10,2013-08-10 22:20:00,
2013-08-10 18:35:00,65.6,65.0,30.02,SSE,162,0.0,-999.0,99,-99.99,,,0.03,weatherlink.com 1.10,2013-08-10 22:35:00,
2013-08-10 18:50:00,65.3,65.0,30.02,SSE,162,0.0,-999.0,99,-99.99,,,0.03,weatherlink.com 1.10,2013-08-10 22:50:00,
2013-08-10 19:05:00,64.8,65.0,30.02,SSE,162,0.0,-999.0,99,-99.99,,,0.03,weatherlink.com 1.10,2013-08-10 23:05:00,
2013-08-10 19:20:00,64.7,64.0,30.01,SSE,162,0.0,-999.0,99,-99.99,,,0.03,weatherlink.com 1.10,2013-08-10 23:20:00,
2013-08-10 19:35:00,64.5,65.0,30.02,SSE,162,0.0,-999.0,100,-99.99,,,0.03,weatherlink.com 1.10,2013-08-10 23:35:00,
2013-08-10 19:50:00,64.5,65.0,30.01,SSE,162,0.0,-999.0,100,-99.99,,,0.03,weatherlink.com 1.10,2013-08-10 23:50:00,
2013-08-10 20:05:00,64.2,64.0,30.00,SSE,162,0.0,-999.0,100,-99.99,,,0.03,weatherlink.com 1.10,2013-08-11 00:05:00,
2013-08-10 20:23:00,64.2,64.0,30.00,SSE,162,0.0,-999.0,100,-99.99,,,0.03,weatherlink.com 1.10,2013-08-11 00:23:00,
2013-08-10 20:36:00,64.2,64.0,29.98,SSE,162,0.0,-999.0,100,-99.99,,,0.03,weatherlink.com 1.10,2013-08-11 00:36:00,
2013-08-10 20:51:00,64.2,64.0,29.99,South,178,0.0,-999.0,100,-99.99,,,0.03,weatherlink.com 1.10,2013-08-11 00:51:00,
2013-08-10 21:06:00,63.7,64.0,29.99,South,178,0.0,-999.0,100,-99.99,,,0.03,weatherlink.com 1.10,2013-08-11 01:06:00,
2013-08-10 21:21:00,63.4,63.0,30.00,South,178,0.0,-999.0,100,-99.99,,,0.03,weatherlink.com 1.10,2013-08-11 01:21:00,
2013-08-10 21:36:00,63.4,63.0,30.01,South,179,0.0,-999.0,100,-99.99,,,0.03,weatherlink.com 1.10,2013-08-11 01:36:00,
2013-08-10 21:51:00,63.5,64.0,30.01,South,179,0.0,-999.0,100,-99.99,,,0.03,weatherlink.com 1.10,2013-08-11 01:51:00,
2013-08-10 22:06:00,63.9,64.0,30.01,South,179,0.0,-999.0,100,-99.99,,,0.03,weatherlink.com 1.10,2013-08-11 02:06:00,
2013-08-10 22:21:00,63.9,64.0,30.01,South,182,0.0,-999.0,100,-99.99,,,0.03,weatherlink.com 1.10,2013-08-11 02:21:00,
2013-08-10 22:36:00,64.0,64.0,30.00,South,182,0.0,-999.0,100,-99.99,,,0.03,weatherlink.com 1.10,2013-08-11 02:36:00,
2013-08-10 22:51:00,63.9,64.0,30.00,SSW,198,0.0,-999.0,100,-99.99,,,0.03,weatherlink.com 1.10,2013-08-11 02:51:00,
2013-08-10 23:06:00,64.0,64.0,30.00,SSW,198,0.0,-999.0,100,-99.99,,,0.03,weatherlink.com 1.10,2013-08-11 03:06:00,
2013-08-10 23:21:00,63.9,64.0,30.00,SSW,198,0.0,-999.0,100,-99.99,,,0.03,weatherlink.com 1.10,2013-08-11 03:21:00,